Hourly Data Report for March 06, 2021

OTTAWA INTL A
ONTARIO
Current Station Operator: NAVCAN

45°19'00.000" N
75°40'00.000" W
114.90 m
6106001
71628
YOW

Download Data

Hourly Data (March 2021)
Hourly Data Report for March 6, 2021
TIME
LST
Temp Definition
°C
Dew Point Definition
°C
Rel Hum Definition
%
Precip. Amount Definition
mm

Wind Dir Definition
10's deg

Wind Spd Definition
km/h
Visibility Definition
km
Stn Press Definition
kPa
Hmdx Definition


Wind Chill Definition


Weather Definition


00:00 -10.5 -16.5 62   30 18 24.1 100.16   -18 LegendNANA
01:00 -10.4 -16.4 62   31 28 24.1 100.18   -20 Cloudy
02:00 -10.5 -16.2 63   28 20 24.1 100.21   -18 LegendNANA
03:00 -10.6 -16.0 65   29 22 24.1 100.21   -19 LegendNANA
04:00 -10.6 -15.7 67   27 22 24.1 100.21   -19 Cloudy
05:00 -10.5 -15.6 66   27 13 24.1 100.25   -17 LegendNANA
06:00 -10.4 -15.7 65   28 17 24.1 100.25   -18 Snow
07:00 -10.8 -16.6 63   28 27 24.1 100.31   -20 Mostly Cloudy
08:00 -11.1 -16.3 66   28 25 24.1 100.36   -20 LegendNANA
09:00 -10.6 -16.5 62   28 25 24.1 100.39   -20 LegendNANA
10:00 -9.4 -16.3 58   28 27 24.1 100.40   -18 Mostly Cloudy
11:00 -8.6 -15.5 58   29 26 24.1 100.43   -17 LegendNANA
12:00 -8.0 -15.3 56   27 31 24.1 100.44   -17 LegendNANA
13:00 -7.9 -15.1 57   27 30 24.1 100.43   -17 Mostly Cloudy
14:00 -7.5 -14.5 58   30 18 24.1 100.43   -14 LegendNANA
15:00 -7.4 -14.4 58   29 27 24.1 100.49   -16 LegendNANA
16:00 -7.5 -15.4 53   28 24 24.1 100.54   -15 Cloudy
17:00 -7.7 -15.5 54   28 22 24.1 100.60   -15 LegendNANA
18:00 -8.5 -16.2 54   27 17 24.1 100.67   -15 LegendNANA
19:00 -11.4 -17.2 62   26 12 24.1 100.75   -18 Mainly Clear
20:00 -10.6 -17.6 57   24 12 24.1 100.79   -17 LegendNANA
21:00 -9.8 -16.4 59   29 16 24.1 100.84   -17 LegendNANA
22:00 -9.7 -16.2 59   28 16 24.1 100.85   -17 Mostly Cloudy
23:00 -9.5 -15.8 61   29 17 24.1 100.85   -17 LegendNANA

Notes on Data Quality.

Legend

  • E = Estimated
  • M = Missing
  • NA = Not Available*
  • [empty] = Indicates an unobserved value
Date modified: